Wind_Speed
22 20 18 17 16 16 16 16 15 15 15 14 14 14 13 13 13 13 12 10 9 8 8 8 9 9 10 11 12 13 14 14 15 16 16 17 18 18 20 21 22 24
23 21 20 18 17 17 17 17 16 16 15 15 15 15 14 13 13 13 12 12 10 10 10 10 11 12 13 13 13 14 15 16 16 17 17 18 18 19 20 22 23 24
24 23 21 19 19 19 19 18 18 17 17 17 16 16 15 14 13 12 12 12 11 11 11 12 13 14 14 15 15 15 16 17 17 18 18 19 19 20 21 23 24 25
27 25 23 21 21 22 21 20 20 19 19 18 17 17 17 16 15 14 13 13 13 12 12 13 14 15 16 16 17 17 18 18 18 18 19 19 20 21 22 23 25 26
29 27 25 24 24 24 23 22 22 22 21 19 19 19 19 18 17 16 15 15 15 14 15 15 16 17 17 17 18 18 19 19 19 19 20 20 21 22 23 24 25 26
30 28 27 26 25 25 24 24 24 23 22 20 20 21 21 20 19 18 18 17 17 17 17 17 18 18 19 19 19 20 20 20 20 21 21 21 22 22 23 24 25 26
31 30 28 27 27 26 26 26 26 25 23 22 22 22 22 22 21 21 20 19 19 19 19 19 20 20 21 21 22 22 22 22 22 22 22 22 22 22 22 24 25 27
32 31 29 28 28 28 28 29 28 26 25 24 24 24 24 24 23 22 22 21 22 22 22 22 22 22 23 24 24 24 23 23 23 23 23 22 22 23 23 24 26 27
33 32 31 30 30 30 31 31 29 28 27 26 26 26 26 26 25 24 23 23 24 24 25 25 25 25 25 25 25 25 25 24 24 23 22 22 22 23 24 25 26 27
36 35 34 33 33 32 33 32 31 30 29 29 28 28 27 27 27 26 25 25 26 26 27 27 27 27 27 27 26 25 24 23 22 22 22 22 23 23 25 26 27 28
38 38 37 36 35 34 34 34 33 32 31 31 30 29 29 29 28 28 27 28 28 28 28 29 29 29 28 27 26 24 22 20 20 20 21 22 23 24 25 26 27 29
41 40 40 38 37 36 36 36 35 35 34 33 32 32 31 30 30 30 30 30 30 30 30 30 29 28 28 27 25 22 20 18 18 19 20 22 24 25 26 27 28 29
42 42 40 39 38 38 38 38 38 37 36 35 34 34 33 32 32 32 32 32 31 31 30 29 28 27 26 25 23 21 19 18 18 19 21 23 24 25 27 28 29 30
43 42 40 40 40 40 41 41 40 39 38 37 36 35 34 34 33 34 33 32 32 31 30 28 27 25 24 23 22 22 21 20 20 21 22 24 25 26 28 29 30 32
43 42 41 41 42 43 44 43 42 40 39 38 38 37 36 36 36 35 34 33 32 30 28 26 24 23 23 23 23 23 23 23 23 23 24 25 26 27 29 30 32 34
44 43 43 43 44 45 45 44 43 42 41 41 39 38 38 38 37 36 35 33 31 29 27 24 22 22 23 24 25 25 25 25 25 25 25 26 27 29 30 31 33 36
46 46 45 45 45 46 45 45 44 44 43 42 41 40 39 39 38 36 34 32 30 28 25 23 23 23 24 25 26 27 27 27 26 26 27 27 29 30 31 33 35 37
47 47 47 47 47 47 46 45 44 43 43 42 41 40 39 38 37 35 33 32 30 27 24 24 24 24 25 26 28 28 29 28 28 28 29 29 30 31 33 35 37 39
46 46 47 47 47 47 47 46 45 44 43 41 40 38 37 37 36 34 32 31 29 27 26 26 26 26 26 28 29 30 30 29 29 30 31 31 32 33 35 38 39 39
42 43 44 45 46 47 47 47 46 45 43 41 39 38 37 36 34 33 32 31 30 29 29 28 27 27 28 30 31 32 31 30 31 32 32 33 34 35 38 39 40 37
39 41 42 43 44 45 46 47 47 46 45 43 41 39 38 36 35 33 33 32 32 32 32 30 29 30 30 32 33 33 33 32 33 33 34 34 35 37 39 40 39 35
37 38 39 40 42 43 44 46 46 46 45 44 42 41 39 38 36 35 34 34 33 35 34 33 32 32 33 34 34 35 35 34 35 35 35 35 37 39 41 40 37 32
35 35 36 37 39 41 42 44 44 45 45 44 44 43 41 40 38 37 36 35 36 37 37 35 34 35 35 36 36 36 37 36 36 37 36 37 38 40 41 39 34 30
35 33 34 35 37 38 40 41 43 43 44 45 45 44 43 41 40 39 39 39 38 39 38 37 37 37 38 37 37 37 38 38 38 39 38 38 40 41 40 36 32 28
35 33 32 33 35 37 39 40 41 42 43 45 46 46 45 43 42 41 42 42 41 41 40 40 39 39 39 38 38 38 39 39 40 40 40 40 42 41 39 35 31 28
36 34 34 33 34 36 37 39 40 41 42 44 45 46 46 45 44 44 44 44 44 43 42 42 41 40 40 39 38 39 40 40 41 41 41 42 42 40 37 33 30 28
Wind_Direction
217 217 218 220 221 222 224 228 231 233 234 235 237 238 236 234 233 230 230 234 243 260 278 290 298 307 316 321 324 327 329 331 336 340 343 345 345 346 347 348 350 351
220 217 218 219 220 222 224 226 228 230 232 234 236 239 239 238 238 237 237 239 245 257 273 286 295 302 308 312 315 318 321 324 326 330 334 337 338 339 342 344 347 349
222 218 218 217 217 220 223 224 224 226 229 233 236 239 242 244 244 244 244 246 250 258 270 281 289 295 301 305 309 313 316 318 319 321 324 328 330 333 337 341 344 346
225 221 218 215 214 217 221 222 222 224 227 231 236 239 244 248 251 252 253 255 258 263 271 278 284 289 294 300 304 309 312 313 314 315 317 320 323 328 333 338 341 343
227 223 219 215 215 217 220 221 222 224 227 230 235 239 244 249 252 255 258 261 264 268 272 277 282 286 290 295 300 304 306 308 309 310 312 315 319 325 331 335 338 339
229 226 223 219 217 217 219 221 224 227 229 230 234 240 245 250 253 256 259 263 266 269 273 277 281 286 290 293 296 299 301 303 305 307 309 312 317 324 329 332 334 336
232 230 228 224 221 219 219 222 226 229 231 232 236 242 247 252 255 258 262 266 270 273 277 280 284 287 290 292 293 295 298 300 303 305 308 312 317 322 326 328 331 333
235 233 230 226 222 220 221 224 228 230 232 234 238 243 248 253 258 262 266 270 274 278 281 284 286 288 289 290 292 294 296 299 301 304 308 312 316 320 323 326 328 330
235 234 231 227 224 223 225 228 230 231 233 235 239 244 249 254 259 264 269 273 278 281 283 285 286 287 288 290 292 294 297 299 302 305 308 311 314 318 320 323 325 327
232 233 232 229 227 227 228 231 232 233 235 237 241 245 251 256 261 266 271 275 278 280 283 285 287 288 289 290 292 295 297 300 303 306 308 311 313 315 318 321 322 324
231 232 233 232 231 231 232 233 234 235 237 239 243 247 251 256 262 267 271 274 277 279 282 284 287 289 291 293 293 295 297 299 302 305 307 309 311 313 316 318 320 322
231 233 234 235 234 234 234 235 236 237 238 241 244 247 251 256 261 265 270 274 277 280 282 285 288 290 292 293 294 296 298 300 301 302 304 306 309 312 315 316 318 321
231 233 235 236 236 236 237 238 239 239 241 243 245 248 252 257 261 266 270 274 278 281 283 286 289 290 292 294 296 299 299 299 300 301 303 305 308 311 313 315 318 321
230 233 235 237 237 237 238 239 240 242 244 246 249 252 256 259 263 267 271 275 278 280 282 286 290 293 295 297 300 300 299 300 300 301 303 305 307 309 311 314 318 321
229 231 233 236 237 237 238 240 242 243 246 248 251 254 257 260 263 267 271 274 277 278 281 286 291 295 298 300 301 301 300 301 301 302 304 305 307 309 311 314 317 320
230 230 231 233 236 237 238 240 242 244 246 248 251 253 256 259 263 266 270 272 273 275 280 286 291 295 299 302 303 302 302 301 301 303 303 305 307 309 311 314 317 320
233 232 231 231 233 235 237 239 241 243 246 248 250 252 255 258 262 265 268 269 269 272 279 284 287 292 297 301 302 303 303 301 301 302 303 305 307 308 311 314 317 320
236 236 234 233 233 233 235 237 239 242 245 247 249 252 254 257 260 262 264 265 266 271 277 279 283 289 295 298 299 301 301 300 300 301 302 304 306 308 311 314 317 320
239 239 239 238 237 236 235 235 237 240 243 246 249 251 253 255 257 260 261 262 265 270 273 275 280 287 291 293 296 299 299 299 299 299 301 303 305 308 311 314 317 318
241 242 243 243 242 240 238 236 236 238 240 243 247 250 251 253 255 258 259 260 263 266 270 274 279 284 288 290 293 296 297 296 296 298 300 302 304 308 311 314 315 315
242 243 244 245 245 244 242 240 238 238 239 241 244 248 250 252 254 256 257 258 261 265 269 274 278 282 285 287 290 294 294 293 294 296 299 301 304 307 310 312 313 311
241 242 243 245 246 246 244 243 242 240 240 240 243 245 248 250 252 254 256 257 261 265 268 272 276 280 283 285 288 291 292 291 293 295 297 300 303 306 308 310 309 307
240 242 243 244 245 246 246 245 245 244 243 242 242 244 246 248 251 253 255 258 260 263 267 271 275 278 281 283 286 289 289 290 292 294 296 299 302 304 306 306 305 302
239 241 244 245 246 247 247 247 247 247 245 244 243 243 245 247 250 253 255 258 260 262 266 270 274 276 279 281 284 286 287 289 291 293 295 298 300 302 303 302 299 297
238 241 243 245 247 248 248 249 249 249 248 246 245 244 245 247 249 252 255 257 260 263 266 269 272 275 277 279 282 284 285 288 290 291 294 297 299 300 299 297 295 295
239 240 241 242 243 244 246 247 248 249 249 248 247 246 246 247 249 251 254 257 260 263 266 268 271 273 275 277 279 281 283 286 288 290 293 297 298 298 297 295 295 297
Height
10994 10995 10997 10998 10999 11000 11001 11002 11003 11005 11006 11006 11007 11007 11008 11009 11009 11010 11010 11011 11011 11011 11011 11011 11011 11011 11011 11010 11010 11009 11008 11007 11007 11006 11006 11005 11004 11003 11002 11001 11000 10999
10992 10994 10995 10996 10998 10999 11000 11001 11002 11004 11005 11005 11006 11007 11007 11008 11009 11009 11010 11011 11011 11011 11011 11010 11010 11010 11010 11010 11009 11009 11008 11007 11006 11006 11005 11004 11003 11002 11001 11000 10999 10998
10990 10992 10993 10995 10996 10997 10998 11000 11001 11002 11003 11004 11005 11006 11007 11007 11008 11009 11009 11010 11010 11011 11011 11010 11010 11009 11009 11009 11008 11008 11007 11006 11006 11005 11004 11003 11002 11001 11000 10999 10998 10997
10988 10990 10991 10993 10994 10995 10996 10998 10999 11001 11002 11003 11004 11005 11005 11006 11007 11008 11008 11009 11009 11010 11010 11010 11009 11009 11008 11008 11008 11007 11006 11006 11005 11004 11003 11002 11001 11000 10999 10998 10997 10995
10986 10988 10989 10990 10991 10992 10994 10995 10997 10998 11000 11002 11003 11003 11004 11005 11006 11006 11007 11007 11008 11008 11009 11009 11008 11008 11008 11007 11007 11006 11005 11004 11004 11003 11002 11001 11000 11000 10998 10997 10996 10994
10983 10985 10987 10988 10989 10990 10992 10993 10994 10996 10998 11000 11001 11001 11002 11003 11004 11004 11005 11006 11006 11007 11007 11007 11007 11006 11006 11006 11005 11005 11004 11003 11002 11001 11001 11000 10999 10999 10998 10996 10995 10993
10981 10983 10985 10986 10987 10988 10990 10991 10992 10994 10996 10997 10998 10999 11000 11000 11001 11002 11003 11004 11004 11004 11005 11005 11005 11005 11004 11004 11003 11003 11002 11001 11001 11000 10999 10999 10998 10997 10996 10995 10993 10992
10980 10982 10983 10984 10985 10986 10987 10988 10990 10991 10993 10995 10996 10997 10997 10998 10999 11000 11001 11002 11002 11002 11003 11003 11003 11003 11003 11002 11001 11001 11000 11000 10999 10999 10998 10997 10996 10995 10994 10993 10992 10991
10977 10979 10981 10982 10983 10984 10984 10985 10987 10989 10991 10992 10993 10994 10995 10996 10997 10998 10999 11000 11000 11000 11000 11000 11001 11001 11001 11000 11000 10999 10999 10998 10997 10997 10996 10995 10994 10993 10992 10991 10991 10989
10974 10975 10977 10979 10980 10981 10982 10983 10985 10987 10988 10990 10991 10992 10993 10993 10995 10996 10997 10998 10998 10998 10998 10998 10998 10998 10998 10998 10998 10998 10997 10996 10996 10994 10993 10993 10992 10991 10990 10989 10988 10987
10970 10972 10973 10975 10977 10979 10980 10981 10983 10984 10986 10987 10988 10990 10990 10991 10993 10994 10995 10995 10996 10996 10996 10996 10996 10995 10995 10995 10995 10996 10995 10995 10994 10993 10991 10990 10990 10989 10988 10987 10986 10985
10967 10968 10970 10972 10975 10976 10977 10978 10979 10981 10983 10984 10986 10987 10988 10990 10991 10992 10993 10993 10994 10994 10994 10994 10993 10993 10992 10992 10992 10993 10993 10993 10992 10991 10990 10989 10988 10987 10986 10985 10984 10983
10963 10965 10968 10970 10972 10973 10974 10974 10975 10977 10979 10981 10983 10984 10985 10987 10988 10989 10990 10990 10991 10991 10991 10991 10991 10990 10990 10989 10990 10990 10990 10990 10990 10989 10988 10987 10986 10985 10984 10982 10981 10980
10960 10963 10965 10968 10969 10970 10970 10970 10972 10974 10975 10977 10979 10980 10982 10984 10985 10986 10987 10988 10988 10988 10988 10989 10988 10988 10987 10987 10987 10987 10987 10987 10987 10986 10986 10985 10984 10983 10981 10980 10979 10978
10957 10960 10962 10964 10965 10966 10966 10967 10969 10971 10973 10974 10975 10977 10979 10980 10981 10982 10984 10985 10985 10986 10986 10986 10986 10985 10985 10984 10984 10984 10984 10984 10983 10983 10983 10982 10981 10980 10979 10978 10976 10975
10953 10955 10958 10960 10961 10962 10963 10965 10967 10968 10970 10971 10973 10974 10976 10977 10978 10979 10981 10982 10982 10983 10984 10984 10984 10983 10983 10982 10982 10981 10981 10981 10980 10980 10980 10979 10978 10977 10976 10975 10974 10973
10949 10951 10953 10955 10956 10958 10960 10962 10964 10965 10966 10968 10969 10971 10972 10973 10975 10976 10978 10979 10979 10980 10981 10981 10981 10981 10981 10980 10980 10979 10978 10977 10977 10977 10976 10976 10975 10974 10973 10972 10971 10970
10945 10947 10949 10950 10952 10954 10956 10958 10960 10961 10962 10964 10965 10967 10969 10970 10971 10973 10974 10975 10976 10977 10978 10978 10978 10978 10978 10978 10977 10977 10976 10975 10974 10973 10973 10972 10971 10970 10969 10968 10968 10966
10941 10943 10945 10947 10949 10950 10952 10955 10956 10957 10958 10960 10962 10964 10966 10967 10968 10970 10971 10971 10973 10974 10974 10975 10975 10975 10975 10975 10974 10974 10973 10972 10971 10970 10969 10969 10968 10967 10966 10965 10964 10963
10938 10940 10941 10943 10945 10947 10949 10950 10951 10952 10954 10956 10958 10960 10961 10963 10964 10966 10967 10968 10969 10969 10970 10971 10972 10972 10972 10971 10971 10970 10969 10968 10968 10967 10966 10965 10964 10963 10962 10961 10961 10959
10934 10936 10938 10940 10941 10943 10945 10946 10947 10949 10950 10952 10954 10956 10957 10959 10961 10963 10963 10964 10965 10965 10966 10967 10968 10968 10968 10968 10967 10966 10965 10965 10964 10963 10963 10962 10961 10960 10958 10958 10957 10955
10930 10932 10934 10935 10937 10939 10940 10941 10943 10945 10946 10948 10950 10951 10953 10955 10957 10958 10959 10961 10962 10961 10962 10963 10964 10964 10964 10964 10963 10962 10961 10961 10960 10960 10959 10959 10957 10956 10955 10954 10953 10951
10926 10928 10930 10931 10933 10934 10935 10937 10939 10940 10942 10944 10945 10947 10948 10950 10952 10954 10955 10957 10958 10957 10958 10959 10960 10961 10960 10960 10959 10958 10957 10956 10956 10956 10956 10955 10954 10952 10951 10950 10949 10948
10923 10924 10925 10927 10928 10929 10931 10932 10934 10936 10938 10940 10941 10942 10944 10946 10948 10950 10951 10952 10953 10954 10954 10955 10956 10957 10956 10956 10955 10954 10952 10952 10951 10951 10951 10951 10950 10949 10947 10947 10946 10945
10918 10920 10921 10922 10923 10924 10926 10928 10929 10931 10933 10935 10936 10938 10939 10942 10944 10945 10946 10947 10948 10949 10951 10951 10952 10952 10952 10951 10951 10949 10948 10947 10947 10946 10947 10947 10945 10944 10943 10942 10942 10942
10913 10915 10916 10917 10918 10920 10921 10923 10925 10926 10928 10929 10931 10933 10935 10937 10939 10940 10941 10942 10943 10945 10946 10947 10948 10948 10947 10947 10946 10945 10944 10943 10942 10941 10942 10941 10940 10938 10937 10937 10936 10936